GW1230 Weather Reports


Display with metric or nautical units.
time (UTC)temp
F
wind
direction
speed
MPH
gust
MPH
rain 1hr
in
rain 24hr
in
rain mn
in
humidity
%
barometer
mb
20260507195643 61 214 4.0 5.0 0.00 0.00 0.00 63 1019.8
20260507195140 61 107 3.0 5.0 0.00 0.00 0.00 63 1019.8
20260507194637 61 41 2.0 2.0 0.00 0.00 0.00 64 1019.7
20260507194132 61 348 1.0 1.0 0.00 0.00 0.00 64 1019.8
20260507193630 62 261 0.0 1.0 0.00 0.00 0.00 62 1020.0
20260507193127 61 273 0.0 1.0 0.00 0.00 0.00 65 1020.0
20260507192623 61 161 1.0 2.0 0.00 0.00 0.00 64 1019.9
20260507192120 60 304 0.0 1.0 0.00 0.00 0.00 66 1019.9
20260507191616 59 271 1.0 3.0 0.00 0.00 0.00 67 1019.7
20260507191112 60 257 3.0 3.0 0.00 0.00 0.00 66 1020.0
20260507190610 60 297 5.0 6.0 0.00 0.00 0.00 65 1020.1
20260507190109 59 253 3.0 3.0 0.00 0.00 0.00 68 1020.1
20260507185607 59 217 5.0 6.0 0.00 0.00 0.00 67 1020.1
20260507185103 59 229 1.0 1.0 0.00 0.00 0.00 67 1020.2
20260507184601 59 197 3.0 3.0 0.00 0.00 0.00 65 1020.1
20260507184059 59 162 6.0 7.0 0.00 0.00 0.00 67 1020.2
20260507183554 58 125 0.0 1.0 0.00 0.00 0.00 69 1020.2
20260507183052 59 115 3.0 5.0 0.00 0.00 0.00 68 1020.1
20260507182548 58 198 6.0 8.0 0.00 0.00 0.00 68 1020.0
20260507182044 57 172 5.0 6.0 0.00 0.00 0.00 71 1020.2
20260507181541 57 162 7.0 7.0 0.00 0.00 0.00 73 1020.1
20260507181037 59 192 4.0 5.0 0.00 0.00 0.00 70 1020.1
20260507180534 60 224 1.0 3.0 0.00 0.00 0.00 67 1020.1
20260507180031 59 278 2.0 3.0 0.00 0.00 0.00 70 1020.3
20260507175527 60 186 5.0 7.0 0.00 0.00 0.00 68 1020.2
20260507175025 59 197 4.0 6.0 0.00 0.00 0.00 70 1020.3
20260507174521 60 268 6.0 8.0 0.00 0.00 0.00 69 1020.2
20260507174019 59 236 4.0 6.0 0.00 0.00 0.00 71 1020.5
20260507173516 58 237 3.0 3.0 0.00 0.00 0.00 72 1020.4
20260507173014 59 189 5.0 6.0 0.00 0.00 0.00 71 1020.2
20260507172509 58 152 5.0 6.0 0.00 0.00 0.00 73 1020.5
20260507172006 59 264 2.0 5.0 0.00 0.00 0.00 71 1020.5
20260507171502 57 258 3.0 5.0 0.00 0.00 0.00 75 1020.4
20260507171000 57 257 7.0 8.0 0.00 0.00 0.00 75 1020.4
20260507170456 56 229 5.0 6.0 0.00 0.00 0.00 76 1020.5
20260507165952 56 227 3.0 3.0 0.00 0.00 0.00 76 1020.3
20260507165448 56 226 5.0 7.0 0.00 0.00 0.00 77 1020.2
20260507164944 56 230 1.0 2.0 0.00 0.00 0.00 78 1020.4
20260507164441 55 193 3.0 3.0 0.00 0.00 0.00 80 1020.6
20260507163938 55 214 4.0 6.0 0.00 0.00 0.00 80 1020.6
20260507163435 55 197 8.0 9.0 0.00 0.00 0.00 78 1020.6
20260507162932 55 204 4.0 5.0 0.00 0.00 0.00 79 1020.6
20260507162427 55 201 5.0 7.0 0.00 0.00 0.00 80 1020.4
20260507161925 55 187 3.0 3.0 0.00 0.00 0.00 79 1020.5
20260507161421 55 238 4.0 5.0 0.00 0.00 0.00 80 1020.3
20260507160918 54 252 3.0 5.0 0.00 0.00 0.00 81 1020.7
20260507160414 55 275 5.0 6.0 0.00 0.00 0.00 79 1020.6
20260507155910 55 238 1.0 2.0 0.00 0.00 0.00 81 1020.6
20260507155406 55 260 1.0 1.0 0.00 0.00 0.00 81 1020.5
20260507154903 54 270 2.0 2.0 0.00 0.00 0.00 82 1020.6
20260507154400 53 204 3.0 3.0 0.00 0.00 0.00 84 1020.7
20260507153857 53 259 3.0 3.0 0.00 0.00 0.00 84 1021.0
20260507153353 53 236 3.0 3.0 0.00 0.00 0.00 84 1020.7
20260507152850 54 234 3.0 5.0 0.00 0.00 0.00 84 1020.7
20260507152347 54 273 2.0 3.0 0.00 0.00 0.00 84 1020.7
20260507151843 52 285 1.0 2.0 0.00 0.00 0.00 86 1020.7
20260507151339 53 268 3.0 5.0 0.00 0.00 0.00 86 1020.7
20260507150836 53 260 2.0 2.0 0.00 0.00 0.00 86 1020.7
20260507150333 52 267 6.0 7.0 0.00 0.00 0.00 86 1020.6
20260507145829 51 246 3.0 3.0 0.00 0.00 0.00 87 1020.6
20260507145325 52 238 3.0 5.0 0.00 0.00 0.00 87 1020.5
20260507144823 52 275 5.0 6.0 0.00 0.00 0.00 87 1020.6
20260507144320 52 254 4.0 5.0 0.00 0.00 0.00 88 1020.6
20260507143816 51 273 2.0 2.0 0.00 0.00 0.00 89 1020.8
20260507143314 51 263 0.0 1.0 0.00 0.00 0.00 90 1020.6
20260507142809 51 231 1.0 1.0 0.00 0.00 0.00 90 1020.4
20260507142307 51 243 2.0 3.0 0.00 0.00 0.00 90 1020.7
20260507141803 51 210 2.0 2.0 0.00 0.00 0.00 90 1020.6
20260507141300 51 201 4.0 5.0 0.00 0.00 0.00 90 1020.5
20260507140756 51 234 1.0 1.0 0.00 0.00 0.00 90 1020.4
20260507140253 51 286 1.0 1.0 0.00 0.00 0.00 90 1020.4
20260507135750 51 276 1.0 2.0 0.00 0.00 0.00 90 1020.4
20260507135248 51 242 1.0 2.0 0.00 0.00 0.00 90 1020.6
20260507134744 51 258 1.0 1.0 0.00 0.00 0.00 90 1020.4
20260507134241 51 249 3.0 5.0 0.00 0.00 0.00 91 1020.5
20260507133736 51 271 1.0 1.0 0.00 0.00 0.00 91 1020.3
20260507133233 51 270 2.0 2.0 0.00 0.00 0.00 91 1020.2
20260507132731 51 252 3.0 5.0 0.00 0.00 0.00 91 1020.5
20260507132227 51 262 2.0 2.0 0.00 0.00 0.00 91 1020.4
20260507131724 51 251 3.0 3.0 0.00 0.00 0.00 91 1020.3
20260507131221 51 282 2.0 2.0 0.00 0.00 0.00 90 1020.5
20260507130718 51 278 2.0 3.0 0.00 0.00 0.00 90 1020.1
20260507130216 51 291 1.0 1.0 0.00 0.00 0.00 90 1020.4
20260507125714 51 279 0.0 0.0 0.00 0.00 0.00 90 1020.6
20260507125212 51 269 0.0 0.0 0.00 0.00 0.00 90 1020.4
20260507124708 51 267 0.0 1.0 0.00 0.00 0.00 90 1020.3
20260507124205 51 267 0.0 0.0 0.00 0.00 0.00 89 1020.3
20260507123703 51 264 1.0 1.0 0.00 0.00 0.00 89 1020.3
20260507123200 51 258 2.0 2.0 0.00 0.00 0.00 89 1020.5
20260507122655 51 249 1.0 1.0 0.00 0.00 0.00 89 1020.6
20260507122151 51 250 0.0 0.0 0.00 0.00 0.00 89 1020.5
20260507121648 51 247 0.0 0.0 0.00 0.00 0.00 89 1020.5
20260507121144 51 247 0.0 0.0 0.00 0.00 0.00 89 1020.6
20260507120640 51 235 0.0 0.0 0.00 0.00 0.00 89 1020.5
20260507120137 51 235 0.0 0.0 0.00 0.00 0.00 89 1020.6
20260507115633 51 233 1.0 1.0 0.00 0.00 0.00 88 1020.5
20260507115128 51 204 4.0 5.0 0.00 0.00 0.00 89 1020.5
20260507114625 51 236 1.0 1.0 0.00 0.00 0.00 88 1020.5
20260507114122 51 227 0.0 1.0 0.00 0.00 0.00 88 1020.4
20260507113619 51 198 4.0 5.0 0.00 0.00 0.00 88 1020.6
20260507113116 51 217 3.0 3.0 0.00 0.00 0.00 88 1020.7
20260507112614 51 211 4.0 5.0 0.00 0.00 0.00 88 1020.7
20260507112111 51 183 6.0 7.0 0.00 0.00 0.00 88 1020.8
20260507111608 51 203 2.0 2.0 0.00 0.00 0.00 87 1021.0
20260507111104 51 207 5.0 6.0 0.00 0.00 0.00 87 1020.8
20260507110601 51 206 4.0 5.0 0.00 0.00 0.00 88 1020.7
20260507110057 51 196 3.0 3.0 0.00 0.00 0.00 87 1020.9
20260507105554 51 214 3.0 3.0 0.00 0.00 0.00 87 1020.9
20260507105050 52 174 4.0 6.0 0.00 0.00 0.00 88 1020.9
20260507104548 52 211 3.0 3.0 0.00 0.00 0.00 88 1020.9
20260507104044 52 196 4.0 5.0 0.00 0.00 0.00 88 1020.9
20260507103540 52 206 3.0 3.0 0.00 0.00 0.00 88 1020.9
20260507103037 52 216 1.0 1.0 0.00 0.00 0.00 88 1021.1
20260507102534 52 225 0.0 0.0 0.00 0.00 0.00 88 1021.0
20260507102031 52 198 4.0 5.0 0.00 0.00 0.00 88 1021.1
20260507101525 52 174 5.0 6.0 0.00 0.00 0.00 88 1021.0
20260507101022 52 202 2.0 2.0 0.00 0.00 0.00 88 1020.9
20260507100519 52 185 5.0 5.0 0.00 0.00 0.00 88 1021.0
20260507100017 52 176 5.0 7.0 0.00 0.00 0.00 88 1021.0
20260507095515 52 167 3.0 3.0 0.00 0.00 0.00 88 1021.1
20260507095011 52 201 3.0 3.0 0.00 0.00 0.00 89 1021.2
20260507094508 52 199 3.0 5.0 0.00 0.00 0.00 89 1021.1
20260507094005 51 223 0.0 1.0 0.00 0.00 0.00 89 1021.1
20260507093502 51 202 3.0 3.0 0.00 0.00 0.00 89 1021.1
20260507093001 51 210 2.0 2.0 0.00 0.00 0.00 90 1021.1
20260507092456 51 202 1.0 3.0 0.00 0.00 0.00 90 1020.9
20260507091953 51 206 2.0 3.0 0.00 0.00 0.00 90 1020.9
20260507091450 51 207 1.0 1.0 0.00 0.00 0.00 90 1021.0
20260507090946 51 276 0.0 0.0 0.00 0.00 0.00 90 1020.8
20260507090442 51 191 3.0 3.0 0.00 0.00 0.00 90 1021.1
20260507085939 51 214 1.0 2.0 0.00 0.00 0.00 90 1021.0
20260507085436 51 251 1.0 2.0 0.00 0.00 0.00 90 1021.0
20260507084933 51 271 2.0 2.0 0.00 0.00 0.00 90 1021.3
20260507084430 51 255 0.0 1.0 0.00 0.00 0.00 91 1021.1
20260507083927 51 215 0.0 0.0 0.00 0.00 0.00 91 1021.0
20260507083423 51 194 6.0 7.0 0.00 0.00 0.00 91 1021.0
20260507082919 51 208 3.0 5.0 0.00 0.00 0.00 91 1021.0
20260507082416 52 235 1.0 2.0 0.00 0.00 0.00 92 1020.9
20260507081913 51 216 2.0 2.0 0.00 0.00 0.00 92 1020.9
20260507081409 51 251 0.0 0.0 0.00 0.00 0.00 92 1021.1
20260507080906 52 224 3.0 3.0 0.00 0.00 0.00 92 1020.7
20260507080402 52 235 2.0 2.0 0.00 0.00 0.00 92 1020.7
20260507075857 52 191 2.0 3.0 0.00 0.00 0.00 92 1020.8
20260507075353 52 265 1.0 2.0 0.00 0.00 0.00 92 1020.9
20260507074850 52 254 1.0 1.0 0.00 0.00 0.00 92 1020.8
20260507074347 52 222 1.0 1.0 0.00 0.00 0.00 92 1020.9
20260507073844 52 210 3.0 3.0 0.00 0.00 0.00 92 1020.8
20260507073341 52 233 3.0 5.0 0.00 0.00 0.00 92 1020.6
20260507072838 52 204 6.0 7.0 0.00 0.00 0.00 92 1020.7
20260507072336 52 242 1.0 2.0 0.00 0.00 0.00 92 1020.6
20260507071833 52 223 3.0 3.0 0.00 0.00 0.00 92 1020.9
20260507071330 53 220 1.0 1.0 0.00 0.00 0.00 92 1020.6
20260507070826 53 214 6.0 7.0 0.00 0.00 0.00 92 1020.7
20260507070324 53 204 3.0 3.0 0.00 0.00 0.00 92 1020.6
20260507065820 53 243 1.0 2.0 0.00 0.00 0.00 92 1020.6
20260507065317 53 188 8.0 10.0 0.00 0.00 0.00 91 1020.9
20260507064814 53 176 4.0 5.0 0.00 0.00 0.00 91 1020.7
20260507064313 53 201 4.0 6.0 0.00 0.00 0.00 91 1020.6
20260507063810 53 196 6.0 7.0 0.00 0.00 0.00 91 1020.6
20260507063307 53 213 1.0 2.0 0.00 0.00 0.00 91 1020.6
20260507062804 53 196 2.0 3.0 0.00 0.00 0.00 91 1020.6
20260507062301 53 202 7.0 7.0 0.00 0.00 0.00 91 1020.6
20260507061759 53 200 2.0 3.0 0.00 0.00 0.00 91 1020.7
20260507061256 53 194 3.0 3.0 0.00 0.00 0.00 91 1020.8
20260507060754 53 215 5.0 7.0 0.00 0.00 0.00 90 1020.6
20260507060251 53 217 3.0 3.0 0.00 0.00 0.00 90 1020.8
20260507055747 53 171 5.0 6.0 0.00 0.00 0.00 90 1020.8
20260507055243 53 201 7.0 7.0 0.00 0.00 0.00 90 1020.6
20260507054739 53 208 3.0 5.0 0.00 0.00 0.00 90 1020.8
20260507054236 53 201 5.0 5.0 0.00 0.00 0.00 90 1020.7
20260507053733 54 190 4.0 6.0 0.00 0.00 0.00 90 1020.8
20260507053231 54 206 2.0 2.0 0.00 0.00 0.00 89 1020.9
20260507052730 54 226 1.0 1.0 0.00 0.00 0.00 89 1020.7
20260507052225 54 212 1.0 2.0 0.00 0.00 0.00 89 1020.7
20260507051724 54 200 4.0 5.0 0.00 0.00 0.00 89 1020.8
20260507051220 54 238 3.0 5.0 0.00 0.00 0.00 89 1020.7
20260507050717 54 204 4.0 5.0 0.00 0.00 0.00 88 1020.7
20260507050214 54 198 4.0 5.0 0.00 0.00 0.00 88 1020.9
20260507045711 55 207 2.0 2.0 0.00 0.00 0.00 87 1020.9
20260507045207 55 180 5.0 7.0 0.00 0.00 0.00 87 1020.8
20260507044704 55 195 1.0 3.0 0.00 0.00 0.00 87 1020.8
20260507044201 55 214 1.0 1.0 0.00 0.00 0.00 87 1020.9
20260507043657 55 214 3.0 3.0 0.00 0.00 0.00 86 1020.9
20260507043154 55 199 7.0 8.0 0.00 0.00 0.00 86 1020.8
20260507042650 55 246 1.0 1.0 0.00 0.00 0.00 86 1020.8
20260507042145 55 221 4.0 5.0 0.00 0.00 0.00 86 1020.9
20260507041643 55 219 3.0 3.0 0.00 0.00 0.00 86 1020.6
20260507041139 55 216 4.0 5.0 0.00 0.00 0.00 86 1020.7
20260507040636 55 200 4.0 5.0 0.00 0.00 0.00 85 1020.5
20260507040132 55 178 4.0 6.0 0.00 0.00 0.00 85 1020.8
20260507035628 55 201 4.0 5.0 0.00 0.00 0.00 85 1020.6
20260507035124 55 203 1.0 2.0 0.00 0.00 0.00 85 1020.5
20260507034621 55 190 3.0 3.0 0.00 0.00 0.00 84 1020.5
20260507034119 56 200 2.0 2.0 0.00 0.00 0.00 84 1020.5
20260507033617 56 260 3.0 3.0 0.00 0.00 0.00 84 1020.5
20260507033114 56 196 4.0 5.0 0.00 0.00 0.00 83 1020.4
20260507032611 56 285 3.0 3.0 0.00 0.00 0.00 83 1020.4
20260507032107 56 250 0.0 0.0 0.00 0.00 0.00 83 1020.3
20260507031604 56 246 1.0 2.0 0.00 0.00 0.00 82 1020.2
20260507031101 56 259 1.0 1.0 0.00 0.00 0.00 82 1020.4
20260507030557 56 214 3.0 5.0 0.00 0.00 0.00 82 1020.4
20260507030056 56 252 3.0 3.0 0.00 0.00 0.00 82 1020.3
20260507025552 56 228 2.0 2.0 0.00 0.00 0.00 82 1020.3
20260507025049 56 212 3.0 5.0 0.00 0.00 0.00 82 1020.3
20260507024547 56 179 2.0 5.0 0.00 0.00 0.00 82 1020.2
20260507024044 56 231 3.0 6.0 0.00 0.00 0.00 82 1020.2
20260507023539 56 268 1.0 1.0 0.00 0.00 0.00 82 1020.3
20260507023038 57 276 3.0 5.0 0.00 0.00 0.00 81 1020.0
20260507022534 57 227 0.0 1.0 0.00 0.00 0.00 81 1019.9
20260507022029 57 209 2.0 3.0 0.00 0.00 0.00 81 1020.1
20260507021525 57 210 0.0 0.0 0.00 0.00 0.00 81 1020.1
20260507021022 57 216 5.0 7.0 0.00 0.00 0.00 81 1020.0
20260507020520 57 231 2.0 2.0 0.00 0.00 0.00 81 1019.8
20260507020016 57 206 4.0 5.0 0.00 0.00 0.00 81 1019.9
20260507015515 57 230 3.0 5.0 0.00 0.00 0.00 81 1019.9
20260507015012 57 234 1.0 1.0 0.00 0.00 0.00 81 1020.2
20260507014508 57 243 3.0 3.0 0.00 0.00 0.00 81 1020.1
20260507014004 56 254 1.0 2.0 0.00 0.00 0.00 82 1020.2
20260507013501 57 227 4.0 6.0 0.00 0.00 0.00 82 1020.2
20260507012958 57 212 8.0 10.0 0.00 0.00 0.00 81 1020.1
20260507012455 57 272 2.0 3.0 0.00 0.00 0.00 81 1020.2
20260507011951 57 223 3.0 3.0 0.00 0.00 0.00 82 1020.0
20260507011448 57 175 4.0 6.0 0.00 0.00 0.00 82 1020.1
20260507010944 57 191 5.0 6.0 0.00 0.00 0.00 81 1020.0
20260507010439 57 189 6.0 8.0 0.00 0.00 0.00 81 1020.2
20260507005936 57 212 3.0 3.0 0.00 0.00 0.00 81 1020.1
20260507005433 57 214 5.0 6.0 0.00 0.00 0.00 81 1020.2
20260507004930 57 203 5.0 7.0 0.00 0.00 0.00 81 1020.1
20260507004427 57 155 1.0 3.0 0.00 0.00 0.00 81 1020.2
20260507003924 57 221 5.0 8.0 0.00 0.00 0.00 81 1020.1
20260507003419 57 190 6.0 8.0 0.00 0.00 0.00 81 1020.4
20260507002914 57 199 3.0 3.0 0.00 0.00 0.00 81 1020.3
20260507002411 57 245 4.0 6.0 0.00 0.00 0.00 81 1020.1
20260507001908 57 200 7.0 8.0 0.00 0.00 0.00 81 1020.2
20260507001405 57 197 4.0 6.0 0.00 0.00 0.00 81 1020.2
20260507000902 57 203 4.0 5.0 0.00 0.00 0.00 80 1020.2
20260507000358 57 201 3.0 5.0 0.00 0.00 0.00 81 1020.2
20260506235853 57 228 3.0 5.0 0.00 0.00 0.00 81 1020.0
20260506235351 57 205 4.0 6.0 0.00 0.00 0.00 80 1020.2
20260506234846 57 272 2.0 2.0 0.00 0.00 0.00 80 1020.1
20260506234344 56 205 9.0 9.0 0.00 0.00 0.00 80 1020.2
20260506233842 56 198 8.0 9.0 0.00 0.00 0.00 81 1020.5
20260506233337 56 205 5.0 7.0 0.00 0.00 0.00 81 1020.4
20260506232834 56 210 3.0 5.0 0.00 0.00 0.00 80 1020.4
20260506232330 56 252 3.0 6.0 0.00 0.00 0.00 80 1020.4
20260506231827 56 190 5.0 7.0 0.00 0.00 0.00 80 1020.5
20260506231325 56 188 5.0 6.0 0.00 0.00 0.00 80 1020.4
20260506230822 56 199 9.0 11.0 0.00 0.00 0.00 80 1020.4
20260506230318 56 214 1.0 2.0 0.00 0.00 0.00 81 1020.4
20260506225814 56 181 5.0 7.0 0.00 0.00 0.00 80 1020.5
20260506225312 57 271 3.0 5.0 0.00 0.00 0.00 80 1020.6
20260506224809 57 197 7.0 8.0 0.00 0.00 0.00 80 1020.3
20260506224306 57 187 9.0 13.0 0.00 0.00 0.00 80 1020.4
20260506223802 56 257 3.0 8.0 0.00 0.00 0.00 80 1020.3
20260506223257 57 201 7.0 13.0 0.00 0.00 0.00 78 1020.4
20260506222754 57 264 4.0 5.0 0.00 0.00 0.00 79 1020.5
20260506222249 56 236 9.0 10.0 0.00 0.00 0.00 78 1020.4
20260506221743 57 221 6.0 8.0 0.00 0.00 0.00 78 1020.6
20260506221240 57 238 5.0 6.0 0.00 0.00 0.00 77 1020.5
20260506220737 58 288 3.0 3.0 0.00 0.00 0.00 77 1020.2
20260506220232 57 204 7.0 8.0 0.00 0.00 0.00 76 1020.5
20260506215729 58 163 6.0 8.0 0.00 0.00 0.00 76 1020.6
20260506215225 57 204 7.0 9.0 0.00 0.00 0.00 76 1020.6
20260506214721 58 257 6.0 8.0 0.00 0.00 0.00 75 1020.4
20260506214219 58 210 7.0 8.0 0.00 0.00 0.00 75 1020.5
20260506213717 57 224 5.0 8.0 0.00 0.00 0.00 76 1020.7
20260506213214 57 196 10.0 11.0 0.00 0.00 0.00 77 1020.5
20260506212711 57 199 5.0 7.0 0.00 0.00 0.00 76 1020.7
20260506212206 57 203 6.0 7.0 0.00 0.00 0.00 76 1020.6
20260506211702 58 192 3.0 5.0 0.00 0.00 0.00 76 1020.7
20260506211158 58 196 3.0 6.0 0.00 0.00 0.00 76 1020.6
20260506210655 57 246 4.0 5.0 0.00 0.00 0.00 76 1020.7
20260506210152 58 236 6.0 7.0 0.00 0.00 0.00 76 1020.5
20260506205649 57 284 5.0 7.0 0.00 0.00 0.00 77 1020.4
20260506205144 57 224 5.0 8.0 0.00 0.00 0.00 77 1020.6
20260506204642 57 258 10.0 10.0 0.00 0.00 0.00 76 1020.5
20260506204139 58 259 4.0 5.0 0.00 0.00 0.00 76 1020.5
20260506203637 58 275 3.0 3.0 0.00 0.00 0.00 76 1020.4
20260506203134 57 238 3.0 6.0 0.00 0.00 0.00 77 1020.6
20260506202632 57 197 7.0 9.0 0.00 0.00 0.00 78 1020.4
20260506202127 57 255 4.0 7.0 0.00 0.00 0.00 77 1020.7
20260506201625 57 220 4.0 5.0 0.00 0.00 0.00 77 1020.3
20260506201121 57 231 10.0 13.0 0.00 0.00 0.00 77 1020.6
20260506200618 57 202 6.0 6.0 0.00 0.00 0.00 78 1020.4
20260506200115 57 199 6.0 8.0 0.00 0.00 0.00 78 1020.4